(211548) = 2003 SU44

Discovered at Anderson Mesa on 2003-09-16 by LONEOS.

Orbit

Orbit type: Main Belt

Note: WebGL enabled browser required.

epoch2024-03-31.0
epoch JD2460400.5
perihelion date2024-09-09.92614
perihelion JD2460563.42614
argument of perihelion (°)1.64610
ascending node (°)324.91551
inclination (°)4.59089
eccentricity0.1450566
perihelion distance (AU)1.9861017
Tisserand w.r.t. Jupiter3.6
ΔV w.r.t. Earth (km/sec)8.9
semimajor axis (AU)2.3230797
mean anomaly (°)314.64779
mean daily motion (°/day)0.27836060
aphelion distance (AU)2.660
period (years)3.54
P-vector [x]0.83442586
P-vector [y]-0.50655310
P-vector [z]-0.21711161
Q-vector [x]0.54919663
Q-vector [y]0.73138641
Q-vector [z]0.40429814
absolute magnitude17.14
phase slope0.15
uncertainty0
referenceMPEC 2024-C115
observations used416
oppositions14
arc length (days)7149
first opposition used2003
last opposition used2023
residual rms (arc-secs)0.69
perturbers coarse indicatorM-v
perturbers precise indicator003Ek
first observation date used2003-09-16.0
last observation date used2023-04-13.0
computer nameMPCLINUX
JD of orbit computation2456465.510542
perihelion JD uncertainty (days)6.0759E-05
argument of perihelion uncertainty (°)6.1192E-05
ascending node uncertainty (°)5.8510E-05
inclination uncertainty (°)7.0377E-06
eccentricity uncertainty 7.7557E-08
perihelion distance uncertainty (AU)1.8820E-07
Minimum Orbit Intersection Distances (in AU)
for orbit epoch: 2460200.5, reference: E2024-CB5
Mercury1.57012
Venus1.25973
Earth0.97364
Mars0.60222
Jupiter2.64058
Saturn6.5004
Uranus15.8013
Neptune27.5744

Observations

427 total observations over interval: 2003 09 16.27373 – 2023 04 13.373666
These data are available for download (format description).

Date (UT) J2000 RA J2000 Dec Magn Location Ref
2003 09 16.27373 00 27 09.19 +08 41 54.8 19.1 R 699 – Lowell Observatory-LONEOS MPS 85372
2003 09 16.29362 00 27 08.19 +08 41 51.4   699 – Lowell Observatory-LONEOS MPS 85372
2003 09 16.31354 00 27 06.91 +08 41 48.7   699 – Lowell Observatory-LONEOS MPS 85372
2003 09 16.33359 00 27 05.84 +08 41 46.1   699 – Lowell Observatory-LONEOS MPS 85372
2003 09 18.42163 00 25 11.40 +08 37 12.2 20.6   608 – Haleakala-AMOS MPS 87001
2003 09 18.43214 00 25 10.78 +08 37 11.0 20.2   608 – Haleakala-AMOS MPS 87001
2003 09 18.44238 00 25 10.17 +08 37 09.3 20.2   608 – Haleakala-AMOS MPS 87001
2003 09 19.40003 00 24 16.18 +08 34 46.5 19.3 V 691 – Steward Observatory, Kitt Peak-Spacewatch MPS 85372
2003 09 19.43115 00 24 14.33 +08 34 41.7 19.3 V 691 – Steward Observatory, Kitt Peak-Spacewatch MPS 85372
2003 09 19.46051 00 24 12.61 +08 34 37.1 19.4 V 691 – Steward Observatory, Kitt Peak-Spacewatch MPS 85372
2003 09 20.29618 00 23 25.57 +08 32 25.2 19.4   704 – Lincoln Laboratory ETS, New Mexico MPS 87001
2003 09 20.30865 00 23 24.82 +08 32 23.7 19.2   704 – Lincoln Laboratory ETS, New Mexico MPS 87001
2003 09 20.32104 00 23 24.04 +08 32 21.7 19.3   704 – Lincoln Laboratory ETS, New Mexico MPS 87001
2003 09 20.33386 00 23 23.28 +08 32 19.8 19.6   704 – Lincoln Laboratory ETS, New Mexico MPS 87001
2003 09 20.34642 00 23 22.53 +08 32 17.4 19.6   704 – Lincoln Laboratory ETS, New Mexico MPS 87001
2003 09 27.23367 00 16 39.84 +08 10 18.1 19.6   704 – Lincoln Laboratory ETS, New Mexico MPS 87001
2003 09 27.24672 00 16 39.13 +08 10 14.4 19.7   704 – Lincoln Laboratory ETS, New Mexico MPS 87001
2003 09 27.25968 00 16 38.26 +08 10 13.1 19.6   704 – Lincoln Laboratory ETS, New Mexico MPS 87001
2003 09 27.27276 00 16 37.50 +08 10 09.9 19.0   704 – Lincoln Laboratory ETS, New Mexico MPS 87001
2003 09 27.28567 00 16 36.74 +08 10 06.6 19.9   704 – Lincoln Laboratory ETS, New Mexico MPS 87001
2003 09 29.15770 00 14 46.63 +08 03 09.4 19.0 R 699 – Lowell Observatory-LONEOS MPS 87001
2003 09 29.16604 00 14 46.07 +08 03 07.4   699 – Lowell Observatory-LONEOS MPS 87001
2003 09 29.17436 00 14 45.59 +08 03 04.7   699 – Lowell Observatory-LONEOS MPS 87001
2003 09 29.18268 00 14 45.06 +08 03 03.8   699 – Lowell Observatory-LONEOS MPS 87001
2003 10 06.27318 00 07 59.94 +07 34 30.5 18.9 R 699 – Lowell Observatory-LONEOS MPS 87001
2003 10 06.29311 00 07 58.85 +07 34 24.2   699 – Lowell Observatory-LONEOS MPS 87001
2003 10 06.31299 00 07 57.74 +07 34 19.5   699 – Lowell Observatory-LONEOS MPS 87001
2003 10 06.33286 00 07 56.53 +07 34 14.7   699 – Lowell Observatory-LONEOS MPS 87001
2003 10 21.22784 23 56 42.27 +06 34 40.8 19.6   704 – Lincoln Laboratory ETS, New Mexico MPS 88123
2003 10 21.23961 23 56 41.77 +06 34 38.4 19.7   704 – Lincoln Laboratory ETS, New Mexico MPS 88123
2003 10 21.25119 23 56 41.43 +06 34 35.3 20.0   704 – Lincoln Laboratory ETS, New Mexico MPS 88123
2003 10 21.27447 23 56 40.60 +06 34 31.4 20.2   704 – Lincoln Laboratory ETS, New Mexico MPS 88123
2005 01 16.43532 09 41 16.48 +15 25 09.3 20.6 V 691 – Steward Observatory, Kitt Peak-Spacewatch MPS 127943
2005 01 16.46170 09 41 15.15 +15 25 13.6 21.0 V 691 – Steward Observatory, Kitt Peak-Spacewatch MPS 127943
2005 01 16.49342 09 41 13.50 +15 25 19.2 20.8 V 691 – Steward Observatory, Kitt Peak-Spacewatch MPS 127943
2005 02 10.30732 09 16 15.43 +16 46 21.2 20.9 g 568 – Maunakea MPS 133316
2005 02 10.39031 09 16 09.91 +16 46 37.2 21.0 g 568 – Maunakea MPS 133316
2005 02 10.42988 09 16 07.26 +16 46 44.7 21.1 g 568 – Maunakea MPS 133316
2005 03 04.20013 08 55 45.64 +17 37 16.8 20.3 R G96 – Mt. Lemmon Survey MPS 127943
2005 03 04.20542 08 55 45.39 +17 37 17.1 19.9 R G96 – Mt. Lemmon Survey MPS 127943
2005 03 04.21069 08 55 45.18 +17 37 17.8 20.6 R G96 – Mt. Lemmon Survey MPS 127943
2005 03 04.21598 08 55 44.92 +17 37 18.0 20.1 R G96 – Mt. Lemmon Survey MPS 127943
2007 12 18.13041 05 05 50.32 +29 48 25.7 20.4 V 691 – Steward Observatory, Kitt Peak-Spacewatch MPS 231759
2007 12 18.15152 05 05 48.78 +29 48 22.3 20.3 V 691 – Steward Observatory, Kitt Peak-Spacewatch MPS 231759
2007 12 18.16918 05 05 47.48 +29 48 19.3 20.0 V 691 – Steward Observatory, Kitt Peak-Spacewatch MPS 231759
2007 12 28.09273 04 55 01.80 +29 14 09.2   691 – Steward Observatory, Kitt Peak-Spacewatch MPS 231759
2007 12 28.11939 04 55 00.19 +29 14 04.0   691 – Steward Observatory, Kitt Peak-Spacewatch MPS 231759
2007 12 28.14950 04 54 58.40 +29 13 57.1   691 – Steward Observatory, Kitt Peak-Spacewatch MPS 231759
2009 02 27.40175 12 24 27.52 -06 46 45.2 21.0 V 691 – Steward Observatory, Kitt Peak-Spacewatch MPS 278598
2009 02 27.41937 12 24 26.77 -06 46 43.8 20.7 V 691 – Steward Observatory, Kitt Peak-Spacewatch MPS 278598
2009 02 27.43698 12 24 26.00 -06 46 41.2 21.2 V 691 – Steward Observatory, Kitt Peak-Spacewatch MPS 278598
2009 03 22.33372 12 04 03.07 -05 25 16.7 20.1 V G96 – Mt. Lemmon Survey MPS 281241
2009 03 22.33919 12 04 02.74 -05 25 15.1 20.1 V G96 – Mt. Lemmon Survey MPS 281241
2009 03 22.34468 12 04 02.42 -05 25 13.7 20.3 V G96 – Mt. Lemmon Survey MPS 281241
2009 03 22.35007 12 04 02.10 -05 25 11.8 20.3 V G96 – Mt. Lemmon Survey MPS 281241
2009 03 29.30602 11 57 05.86 -04 50 31.0 20.4 V G96 – Mt. Lemmon Survey MPS 282510
2009 03 29.31427 11 57 05.36 -04 50 28.3 20.4 V G96 – Mt. Lemmon Survey MPS 282510
2009 03 29.32248 11 57 04.89 -04 50 25.9 20.6 V G96 – Mt. Lemmon Survey MPS 282510
2009 03 29.33045 11 57 04.39 -04 50 23.6 20.6 V G96 – Mt. Lemmon Survey MPS 282510
2010 07 26.24126 23 41 06.37 -01 07 33.1 18.6 J W91 – VHS-VISTA, Cerro Paranal MPS 678071
2010 07 26.24340 23 41 06.38 -01 07 32.4 18.7 J W91 – VHS-VISTA, Cerro Paranal MPS 678071
2010 07 26.25649 23 41 06.47 -01 07 28.7 18.3 H W91 – VHS-VISTA, Cerro Paranal MPS 678071
2010 07 26.25883 23 41 06.49 -01 07 28.1 18.2 H W91 – VHS-VISTA, Cerro Paranal MPS 678071
2010 08 13.34461 23 38 35.00 -00 12 05.2   691 – Steward Observatory, Kitt Peak-Spacewatch MPS 344719
2010 08 13.36239 23 38 34.48 -00 12 04.1   691 – Steward Observatory, Kitt Peak-Spacewatch MPS 344719
2010 08 13.38018 23 38 33.96 -00 12 02.7   691 – Steward Observatory, Kitt Peak-Spacewatch MPS 344719
2010 08 30.565214 23 26 52.274 -00 14 27.40 18.96 i F51 – Pan-STARRS 1, Haleakala MPS 365219
2010 08 30.568134 23 26 52.116 -00 14 27.73 18.99 i F51 – Pan-STARRS 1, Haleakala MPS 365219
2010 08 30.571174 23 26 51.944 -00 14 28.01 19.00 i F51 – Pan-STARRS 1, Haleakala MPS 365219
2010 08 30.575133 23 26 51.726 -00 14 28.42 19.01 i F51 – Pan-STARRS 1, Haleakala MPS 365219
2010 08 31.536846 23 26 00.815 -00 15 59.98 18.88 z F51 – Pan-STARRS 1, Haleakala MPS 365219
2010 08 31.539827 23 26 00.647 -00 15 59.99 18.88 z F51 – Pan-STARRS 1, Haleakala MPS 365219
2010 08 31.542986 23 26 00.463 -00 16 00.43 18.88 z F51 – Pan-STARRS 1, Haleakala MPS 365219
2010 08 31.551965 23 25 59.955 -00 16 01.39 18.82 z F51 – Pan-STARRS 1, Haleakala MPS 365219
2010 08 31.554922 23 25 59.784 -00 16 01.58 18.87 z F51 – Pan-STARRS 1, Haleakala MPS 365219
2010 09 01.36484 23 25 16.35 -00 17 26.7 19.3   704 – Lincoln Laboratory ETS, New Mexico MPS 347009
2010 09 01.37627 23 25 15.62 -00 17 28.3 19.5   704 – Lincoln Laboratory ETS, New Mexico MPS 347009
2010 09 01.38769 23 25 15.05 -00 17 28.5 19.4   704 – Lincoln Laboratory ETS, New Mexico MPS 347009
2010 09 01.39912 23 25 14.40 -00 17 29.9 19.4   704 – Lincoln Laboratory ETS, New Mexico MPS 347009
2010 09 01.41053 23 25 13.74 -00 17 30.6 19.5   704 – Lincoln Laboratory ETS, New Mexico MPS 347009
2010 09 02.38244 23 24 20.62 -00 19 18.5 19.0 V G96 – Mt. Lemmon Survey MPS 347009
2010 09 02.38939 23 24 20.23 -00 19 19.2 18.9 V G96 – Mt. Lemmon Survey MPS 347009
2010 09 02.39634 23 24 19.83 -00 19 19.9 18.9 V G96 – Mt. Lemmon Survey MPS 347009
2010 09 02.40326 23 24 19.44 -00 19 20.8 18.9 V G96 – Mt. Lemmon Survey MPS 347009
2010 09 04.32283 23 22 32.58 -00 23 11.8 18.9   704 – Lincoln Laboratory ETS, New Mexico MPS 347813
2010 09 04.33574 23 22 31.80 -00 23 13.7 19.4   704 – Lincoln Laboratory ETS, New Mexico MPS 347813
2010 09 04.34887 23 22 31.02 -00 23 15.5 19.5   704 – Lincoln Laboratory ETS, New Mexico MPS 347813
2010 09 04.36223 23 22 30.19 -00 23 17.2 19.2   704 – Lincoln Laboratory ETS, New Mexico MPS 347813
